THORAD DELTA 1 DEB, 8139

Orbit data source: Space-Track

THORAD DELTA 1 DEB, 8139 is space debris in SSO originally from a launch on Fri, 15 Nov 1974 UTC launched from the Air Force Western Test Range (AFWTR). Debris objects in space refer to the collection of defunct objects orbiting the Earth. Examples of debris include non-operational satellites, rocket bodies, and fragments generated from explosions, collisions, or faulty payload assembly.

Loading next visibility...
Identifier
8139, 1974-089H
Orbit
SSO
Country
Flag of USUS
Related business
Manufacturer
Unknown
Mission
Spacecraft
Bus & Motor
Unknown
Mass
Unknown
Launch date (UTC)
1974-11-15 (51 years ago)
Launch vehicle
Unknown
Launch site
Air Force Western Test Range (AFWTR)
Object type
Payload
Rocket body
Debris
Shape & HBR
Unknown shape, 0.5 m
Radar Cross Section
Medium (>0.1 m² and <1 m²)

Expand to show TLE details & history
Last TLE update: 14 hours ago

TLE from 14 hours ago
0 THORAD DELTA 1 DEB
1  8139U 74089H   26048.53541001 -.00000007  00000-0  21392-3 0  9996
2  8139 101.6024  13.7124 0049618 249.8926 229.8320 12.61939119360011
Epoch: 2026-02-17T12:50Z
TLE epoch observation values (Epoch: 2026-02-17T12:50:59.424Z)
Latitude
58.77695°
Longitude
-126.85249°
Altitude
1,449.767 km
Speed
7.131 km/s
True Right ascension
14h 13m 38s
True Declination
58° 38' 16"
Sunlit
Object was in daylight at epoch
Visualization orbit readout
Latitude
Unknown
Longitude
Unknown
Altitude
Unknown
Speed
Unknown
Apparent Right ascension
Unknown
Apparent Declination
Unknown
Sunlit
N/A
Visualization observer readout
Local Sidereal Time
05:35:10
Azimuth
Unknown
Elevation
Unknown
Doppler factor
Unknown
Orbital elements
Apogee altitude
1,451.129 km
Perigee altitude
1,373.818 km
Semi-major axis
7,790.61 km
Eccentricity
0.00496
Inclination
101.6024°
RAAN
13.7124°
Arg. of periapsis
249.8926°
True anomaly
229.39925°
Mean anomaly
229.832°
Eccentric anomaly
229.61545°
Mean motion
3.15636 °/min
Orbital period
114.06 mins
BSTAR
0.00021392
Loading maneuver chart data...
Computing Atmospheric mass density...

Documentation

Showing up to 5 results
|